Location: Banska Bystrica
(0.0000°N, 19.1500°E)
Time: 20:54:20
(UTC+02:00)

Envisat - Pass Details

Date: 19 February 2019
Orbit: 764 x 766 km, 98.1° (Epoch: 20 October)

Event Time Altitude Azimuth Distance (km) Brightness Sun altitude
Rises 18:34:23 0° 160° (SSE) 3,230 6.1 -9.1°
Reaches altitude 10° 18:36:44 10° 156° (SSE) 2,301 5.4 -9.7°
Maximum altitude 18:41:42 56° 78° (ENE) 903 3.0 -10.9°
Drops below altitude 10° 18:46:39 10° 0° (N) 2,291 5.3 -12.1°
Sets 18:48:58 0° 356° (N) 3,214 6.1 -12.7°
